Wind_Speed
14 14 13 13 13 13 13 13 13 12 13 13 13 13 13 15 15 15 16 16 16 15 15 15 15 14 14 14 14 14 14 14 14 15 15 14 14 13 13 13 13 12 12
14 14 14 14 14 14 14 13 13 13 14 14 14 13 14 15 15 16 16 16 16 15 15 15 16 16 16 15 15 16 16 16 15 15 15 14 14 14 14 13 12 12 12
14 14 14 13 13 14 14 13 13 14 14 14 14 15 15 15 16 16 16 16 15 15 15 15 15 16 17 17 17 17 17 16 16 15 15 14 14 14 14 14 13 13 12
12 13 12 13 13 13 13 13 14 14 14 15 15 16 16 16 16 16 16 16 16 15 15 15 15 16 17 18 17 17 17 17 16 16 16 16 15 14 14 14 14 13 13
11 11 12 12 13 13 13 14 15 15 16 16 16 17 17 17 17 17 17 17 17 16 16 16 16 17 18 18 18 17 17 17 16 16 16 16 15 15 15 15 15 15 14
11 11 12 12 13 13 14 14 15 15 16 16 17 17 17 17 17 17 18 18 18 17 17 17 18 17 18 18 18 18 18 17 17 17 17 16 16 16 16 16 16 16 15
12 12 13 13 13 14 14 14 14 15 16 16 16 17 18 18 17 18 18 19 19 18 17 18 18 18 18 18 18 18 18 18 17 17 17 17 17 16 16 17 17 17 17
13 13 13 13 14 14 14 15 15 15 16 16 16 17 18 18 18 18 19 19 19 18 18 18 19 19 19 18 18 19 19 19 18 18 17 17 17 17 17 17 18 18 18
14 14 13 14 14 14 15 15 16 16 17 17 17 18 18 18 18 19 19 19 19 18 19 19 20 20 19 18 18 18 19 19 19 18 18 18 18 18 18 18 18 19 19
13 14 14 14 14 15 16 16 16 17 17 18 18 18 18 19 19 18 18 18 18 18 19 19 19 19 19 19 19 19 19 19 19 19 18 19 18 18 18 18 18 18 18
14 15 16 15 15 15 16 16 17 17 17 18 18 18 19 19 19 18 18 18 17 17 18 18 19 19 19 19 19 20 20 19 19 20 20 20 19 19 19 19 19 19 19
15 15 16 16 17 16 16 16 17 18 18 19 19 19 19 19 19 19 18 18 18 17 18 19 19 19 20 20 20 21 21 20 20 20 21 21 21 20 20 19 19 20 20
16 16 17 18 18 18 18 18 19 19 19 19 19 19 19 19 19 19 19 19 18 18 19 19 19 20 20 20 20 21 21 21 21 21 21 22 22 22 21 20 20 21 21
17 18 18 19 19 20 20 20 20 20 20 20 20 19 19 19 19 19 19 19 19 18 19 19 20 20 20 20 21 22 23 22 22 22 22 22 23 23 23 22 22 22 22
19 19 19 20 21 21 21 21 21 21 21 21 21 20 20 20 20 19 20 20 19 19 19 19 20 20 20 21 22 22 23 23 24 24 24 23 23 24 24 24 24 24 24
20 20 20 21 21 22 22 22 22 22 22 21 21 21 20 20 20 20 20 21 21 21 21 21 21 22 22 22 22 22 23 24 24 24 24 25 25 25 26 25 26 26 25
20 20 21 21 22 22 22 22 22 23 22 22 22 21 20 20 21 21 22 22 22 22 23 22 22 22 23 23 23 24 24 24 24 24 25 26 26 26 27 28 28 27 27
20 20 21 21 22 22 23 23 22 22 22 22 23 23 22 22 22 22 22 22 22 22 23 24 23 23 23 23 23 23 23 23 24 25 26 27 27 28 28 28 28 28 27
21 21 21 21 22 22 22 22 22 22 22 23 23 23 23 23 23 22 23 23 23 23 23 24 24 23 23 23 24 24 24 24 24 25 27 27 28 28 29 29 29 29 29
22 22 22 22 22 22 22 22 22 22 23 23 24 23 23 23 23 23 23 23 24 24 24 25 25 25 25 25 25 26 26 26 26 26 27 28 28 29 30 30 30 30 31
23 23 23 23 23 22 22 22 22 23 23 24 24 24 24 24 24 24 24 24 25 26 26 26 27 27 27 27 27 27 27 27 27 27 28 28 29 29 30 30 31 31 31
23 23 24 24 23 23 23 23 23 24 24 24 25 25 25 25 25 25 26 26 26 27 27 28 29 29 28 28 28 29 28 28 29 29 29 29 30 30 30 31 31 31 32
24 24 24 24 24 24 24 24 24 25 24 25 25 26 26 26 27 27 27 27 27 28 28 29 30 30 30 30 30 30 30 30 30 29 30 30 31 31 31 31 31 30 31
24 24 24 24 24 24 24 24 24 25 25 26 26 26 27 28 28 28 28 28 28 28 29 29 30 30 31 31 31 31 31 31 31 31 31 32 32 32 32 32 31 31 31
25 25 24 24 24 24 24 25 25 25 26 26 27 27 27 28 29 30 30 29 29 30 30 31 31 32 32 33 33 33 33 33 33 33 33 33 33 33 33 32 32 32 32
25 25 26 26 26 26 26 26 26 26 26 26 27 27 27 28 29 30 30 30 30 30 30 30 31 32 32 33 33 33 33 33 33 34 34 34 33 33 33 33 33 33 33
Wind_Direction
269 270 269 270 268 271 274 273 274 274 272 272 277 276 273 268 269 271 272 271 272 270 267 265 264 263 262 259 256 256 257 255 256 256 256 257 256 257 257 259 260 261 261
266 267 268 267 269 271 272 273 271 271 272 274 276 278 277 275 273 273 273 273 273 269 265 264 261 261 261 259 257 256 257 257 257 254 255 254 255 257 259 261 262 261 260
267 265 265 268 271 273 273 272 273 274 276 275 274 276 280 277 276 275 273 273 274 270 265 262 261 260 259 257 256 256 256 255 254 252 252 252 253 256 258 259 260 260 260
271 267 267 270 271 273 272 272 271 273 277 277 275 277 279 280 277 275 273 272 272 269 265 265 263 262 259 256 254 254 253 253 254 253 253 252 253 254 254 257 259 260 260
272 270 270 273 275 275 274 273 271 272 273 274 275 275 275 277 277 276 275 273 271 268 265 266 264 262 260 257 255 254 253 254 255 254 253 253 253 254 255 255 258 260 261
270 271 273 276 280 280 278 274 273 274 274 273 274 274 274 275 277 275 277 276 272 267 266 266 266 262 258 255 255 256 257 255 255 253 252 253 255 257 255 254 256 259 261
269 272 276 277 279 280 279 278 278 278 277 275 274 275 273 274 276 275 276 277 276 273 268 267 266 262 258 256 255 255 256 255 254 253 253 254 255 258 257 255 256 258 262
272 273 273 275 278 279 279 280 282 282 280 278 277 277 276 275 278 276 276 276 275 272 267 266 265 263 259 256 256 256 254 253 255 253 254 255 257 259 259 258 257 258 261
274 272 275 277 277 278 279 281 283 284 282 279 278 279 280 280 281 279 280 275 271 268 266 265 263 262 259 257 256 257 256 255 255 254 255 255 256 259 260 260 260 260 261
274 276 279 281 281 279 281 282 284 285 284 282 279 278 279 281 280 279 279 277 273 267 265 267 264 264 262 258 257 258 258 256 254 254 255 256 258 259 260 262 263 262 262
280 280 280 281 283 282 282 282 284 285 284 282 280 278 278 280 281 280 278 276 274 271 268 264 263 264 263 261 259 259 257 254 253 254 255 257 257 259 261 262 262 262 262
288 284 282 282 282 283 285 284 285 284 283 282 281 281 281 281 281 280 278 275 275 273 270 265 265 264 264 263 261 257 255 255 255 254 256 256 256 259 261 262 262 262 262
289 286 284 284 284 284 284 285 285 285 284 284 283 280 281 280 280 280 278 274 273 271 271 269 269 267 266 264 262 259 257 255 256 256 257 257 257 259 260 262 263 264 263
290 289 286 286 286 285 285 285 286 286 286 285 283 281 278 278 277 278 276 274 274 273 271 270 270 269 267 266 265 262 261 259 257 259 258 257 258 259 260 263 265 266 265
291 290 288 287 287 286 286 286 286 287 287 286 285 283 278 275 276 275 275 274 273 271 271 269 269 269 269 267 265 263 262 262 262 261 260 258 258 260 261 263 265 265 266
291 291 290 289 288 287 286 286 285 286 285 284 284 284 281 276 276 275 274 274 273 271 270 269 268 268 268 269 266 263 262 262 263 264 264 263 261 262 262 262 263 264 265
291 292 291 290 287 286 285 284 284 284 283 282 282 282 279 277 278 275 274 273 274 274 272 269 268 267 268 270 267 265 265 265 265 264 264 264 265 265 264 264 264 264 264
292 293 293 292 289 287 284 283 282 282 282 281 280 280 277 275 276 276 275 274 274 273 271 270 269 270 270 268 265 265 265 267 266 265 264 264 264 267 268 268 267 265 264
289 291 291 291 291 289 287 283 280 280 280 281 280 280 277 275 274 275 276 275 274 274 273 272 271 269 269 268 266 264 266 267 267 267 267 266 266 267 268 269 269 267 265
289 289 290 289 289 289 288 285 282 280 279 279 279 278 276 276 275 275 276 275 273 275 274 273 272 271 269 269 269 269 268 268 267 268 267 267 269 269 268 269 269 269 267
289 288 289 289 288 287 287 286 285 283 281 279 277 276 275 275 275 275 274 275 274 274 274 273 273 272 271 270 269 269 269 269 269 268 268 269 270 270 269 269 269 269 268
287 288 288 288 287 286 286 286 286 286 284 281 278 275 274 274 274 274 275 275 275 274 274 274 274 274 273 272 271 271 270 270 270 269 268 269 270 269 270 269 268 268 267
285 286 287 287 286 286 286 286 286 285 284 284 281 277 275 274 274 274 274 276 277 276 276 275 275 274 273 272 271 270 270 269 270 270 269 269 270 270 270 270 269 267 266
285 285 285 285 285 286 287 287 287 285 284 284 283 280 277 275 273 274 275 276 277 277 277 277 276 275 273 272 272 272 270 269 269 270 270 270 270 271 271 271 269 267 266
283 283 283 284 284 285 286 286 287 286 285 284 282 281 278 276 275 275 277 277 278 278 277 277 275 274 274 273 273 272 271 270 270 269 269 270 270 271 271 270 269 267 268
281 280 281 281 283 284 285 286 286 286 286 285 284 282 281 279 277 278 278 278 279 279 279 278 277 276 275 274 273 272 271 270 270 269 269 269 269 270 270 269 269 269 270
Height
5839 5839 5839 5839 5839 5839 5839 5838 5838 5837 5837 5837 5836 5835 5834 5834 5833 5833 5832 5832 5831 5831 5830 5830 5831 5831 5831 5831 5832 5832 5832 5833 5833 5833 5833 5833 5833 5834 5834 5834 5834 5833 5833
5836 5836 5836 5836 5836 5836 5836 5835 5835 5834 5834 5833 5833 5832 5831 5831 5830 5829 5828 5827 5827 5826 5826 5826 5826 5827 5827 5828 5828 5829 5829 5829 5830 5830 5830 5830 5831 5830 5830 5831 5831 5830 5830
5832 5832 5832 5832 5832 5832 5832 5832 5831 5831 5830 5830 5829 5829 5828 5827 5826 5825 5824 5823 5822 5822 5821 5821 5822 5822 5823 5824 5824 5825 5825 5826 5826 5826 5827 5827 5827 5827 5827 5827 5827 5827 5827
5829 5829 5829 5829 5829 5829 5828 5828 5827 5827 5827 5826 5826 5825 5824 5823 5822 5821 5820 5819 5818 5817 5817 5817 5817 5818 5818 5819 5820 5820 5821 5822 5822 5822 5823 5823 5823 5824 5824 5824 5824 5824 5824
5826 5826 5826 5825 5825 5825 5824 5824 5823 5823 5822 5822 5821 5821 5820 5819 5818 5817 5815 5815 5814 5813 5813 5813 5813 5813 5814 5815 5815 5816 5817 5817 5818 5818 5819 5819 5820 5820 5820 5821 5821 5821 5821
5822 5822 5822 5822 5822 5821 5821 5820 5819 5819 5818 5818 5817 5816 5815 5814 5813 5812 5811 5810 5809 5809 5809 5809 5809 5809 5809 5810 5811 5811 5812 5813 5814 5814 5815 5816 5816 5816 5816 5817 5817 5817 5817
5819 5819 5819 5819 5818 5818 5817 5816 5816 5815 5814 5813 5812 5812 5811 5810 5809 5807 5806 5805 5804 5804 5804 5804 5804 5804 5805 5805 5806 5807 5808 5808 5809 5810 5810 5811 5812 5812 5812 5812 5813 5813 5813
5815 5815 5815 5815 5815 5814 5813 5813 5812 5811 5810 5809 5808 5807 5806 5805 5804 5803 5802 5801 5800 5799 5799 5799 5799 5799 5800 5800 5801 5802 5802 5803 5804 5805 5806 5806 5807 5807 5807 5808 5808 5808 5808
5812 5811 5811 5811 5811 5810 5809 5808 5808 5807 5806 5805 5804 5803 5802 5801 5799 5798 5797 5796 5795 5794 5794 5794 5794 5794 5795 5795 5796 5797 5797 5798 5799 5800 5801 5801 5802 5802 5803 5803 5803 5804 5804
5808 5807 5807 5807 5806 5806 5805 5804 5803 5802 5801 5800 5799 5798 5797 5796 5795 5793 5792 5791 5790 5789 5789 5789 5789 5789 5789 5790 5791 5792 5792 5793 5794 5795 5796 5796 5797 5797 5798 5798 5798 5798 5798
5804 5803 5803 5802 5802 5801 5800 5799 5799 5798 5796 5795 5794 5792 5791 5791 5789 5788 5787 5786 5785 5785 5784 5784 5784 5784 5785 5785 5786 5786 5787 5788 5789 5790 5790 5791 5792 5792 5792 5793 5793 5793 5793
5800 5799 5798 5798 5797 5796 5795 5794 5793 5792 5791 5790 5788 5787 5786 5785 5784 5783 5782 5781 5780 5780 5780 5779 5779 5780 5780 5780 5780 5781 5782 5783 5783 5784 5785 5785 5786 5786 5787 5787 5787 5787 5787
5795 5795 5794 5793 5792 5791 5790 5789 5788 5787 5785 5784 5782 5781 5780 5780 5779 5778 5777 5776 5775 5775 5775 5775 5774 5774 5774 5774 5774 5775 5776 5777 5778 5778 5779 5779 5780 5780 5781 5781 5781 5781 5781
5791 5790 5789 5788 5787 5786 5785 5784 5782 5781 5780 5778 5777 5776 5775 5774 5773 5772 5772 5771 5770 5770 5769 5769 5769 5769 5769 5769 5769 5769 5770 5770 5771 5772 5772 5773 5773 5774 5774 5775 5775 5775 5775
5785 5784 5783 5782 5781 5780 5779 5778 5776 5775 5773 5772 5771 5769 5769 5768 5767 5766 5766 5765 5765 5764 5764 5764 5763 5763 5763 5763 5763 5763 5763 5764 5764 5765 5765 5766 5766 5767 5767 5768 5768 5768 5768
5780 5778 5777 5776 5775 5773 5772 5771 5770 5768 5767 5766 5765 5763 5762 5761 5761 5760 5760 5759 5758 5758 5758 5758 5757 5757 5757 5756 5756 5756 5757 5757 5757 5757 5758 5758 5759 5759 5760 5760 5760 5760 5760
5774 5772 5771 5769 5768 5766 5765 5764 5763 5762 5761 5760 5759 5757 5756 5755 5754 5754 5753 5753 5752 5752 5751 5751 5751 5750 5750 5750 5750 5749 5750 5750 5750 5750 5751 5751 5752 5752 5752 5752 5752 5752 5752
5768 5766 5765 5763 5761 5759 5758 5757 5756 5755 5754 5753 5752 5751 5750 5749 5748 5748 5747 5746 5746 5745 5744 5744 5744 5743 5743 5743 5743 5743 5743 5743 5743 5743 5743 5743 5743 5743 5743 5743 5743 5744 5744
5761 5760 5758 5757 5755 5753 5751 5750 5749 5748 5747 5746 5745 5744 5743 5743 5742 5741 5740 5740 5739 5738 5737 5737 5736 5736 5736 5735 5735 5735 5735 5735 5735 5735 5735 5734 5735 5735 5735 5734 5734 5735 5735
5754 5753 5751 5750 5748 5746 5744 5743 5741 5741 5740 5739 5738 5737 5736 5736 5735 5734 5733 5733 5732 5731 5730 5730 5729 5728 5728 5728 5727 5727 5727 5727 5727 5726 5726 5726 5726 5726 5725 5725 5725 5725 5725
5747 5745 5744 5742 5741 5739 5738 5736 5734 5733 5732 5731 5730 5729 5729 5728 5727 5727 5726 5725 5724 5724 5723 5722 5721 5720 5719 5719 5719 5718 5718 5718 5718 5717 5717 5717 5717 5716 5716 5715 5716 5716 5715
5739 5737 5736 5735 5733 5732 5730 5729 5727 5726 5724 5723 5722 5721 5720 5720 5719 5718 5718 5717 5716 5715 5714 5713 5712 5711 5710 5710 5709 5709 5708 5708 5708 5708 5708 5707 5707 5706 5706 5706 5706 5706 5705
5731 5729 5728 5727 5725 5724 5722 5721 5720 5718 5716 5715 5713 5712 5711 5711 5710 5709 5709 5708 5707 5706 5705 5704 5703 5702 5701 5700 5699 5699 5699 5698 5698 5698 5698 5697 5697 5696 5696 5696 5696 5695 5695
5722 5721 5720 5719 5717 5716 5714 5713 5711 5710 5708 5706 5705 5703 5702 5701 5700 5700 5699 5698 5697 5696 5695 5694 5693 5691 5691 5690 5689 5689 5688 5688 5688 5688 5687 5687 5686 5686 5686 5685 5685 5685 5685
5714 5713 5712 5710 5709 5708 5706 5705 5703 5701 5700 5698 5696 5694 5693 5692 5691 5690 5689 5688 5687 5686 5685 5683 5682 5681 5680 5679 5678 5678 5678 5677 5677 5677 5676 5676 5676 5675 5675 5674 5674 5674 5674
5705 5704 5703 5702 5700 5699 5697 5696 5694 5693 5691 5689 5687 5686 5684 5682 5681 5680 5679 5677 5676 5675 5674 5672 5671 5669 5669 5668 5667 5666 5666 5666 5666 5665 5665 5665 5665 5665 5664 5664 5663 5663 5662